[[{"header":{"parameterUnit":"m.s-1","parameterCategory":1,"la1":30.2991,"la2":30.254,"lo1":-89.0895,"lo2":-89.0444,"dy":0.0017,"dx":0.0017,"nx":28,"ny":28,"refTime":"2024-03-11T03:00:00:Z","depth":0,"parameterNumber":2,"parameterNumberName":"U-component_of_WINDS"},"data":[0,0,0,0,0,0,0,0,0,0,0,0,0,0,0,0,0,0,0,0,0,0,0,0,0,0,0,0,0,0,0,0,0,0,0,0,0,0,0,0,0,0,0,0,0,0,0,0,0,0,0,0,0,0,0,0,0,0,-2.3128,-2.3129,0,-2.3223,-2.3224,-2.3225,-2.3132,-2.3129,-2.3125,-2.3122,-2.3222,-2.3228,-2.3234,0,0,0,0,0,0,0,0,0,0,0,0,0,-2.287,-2.2876,-2.3128,-2.3129,-2.3131,-2.3223,-2.3224,-2.3225,-2.3133,-2.3129,-2.3124,-2.312,-2.322,-2.3227,-2.3234,0,0,0,0,0,0,0,0,0,0,0,0,0,-2.2976,-2.2877,-2.3128,-2.3096,-2.3094,-2.3223,-2.3224,-2.3226,-2.3134,-2.3128,-2.3123,-2.3118,-2.3217,-2.3226,-2.3235,-2.3402,0,0,-2.3263,-2.3267,0,0,0,0,0,0,0,0,-2.297,-2.2985,-2.3099,-2.3098,-2.3096,-2.316,-2.317,-2.3285,-2.3135,-2.3119,-2.3121,-2.3115,-2.3206,-2.3216,-2.3246,-2.3407,-2.3411,-2.3264,-2.3269,-2.3273,-2.3276,0,0,0,0,0,0,0,-2.2963,-2.2981,-2.3166,-2.3101,-2.3099,-2.3077,-2.3086,-2.3191,-2.3192,-2.312,-2.3113,-2.3126,-2.3204,-2.3237,-2.3247,-2.3412,-2.3264,-2.3272,-2.3277,-2.3281,-2.3717,-2.3722,0,0,0,0,0,0,-2.2958,-2.2975,-2.3163,-2.3169,-2.3018,-2.3086,-2.3096,-2.3145,-2.3191,-2.3192,-2.313,-2.3121,-2.3224,-2.3237,-2.325,-2.345,-2.3273,-2.3282,-2.3287,-2.371,-2.3718,-2.3724,0,0,0,0,0,0,-2.2953,-2.2976,-2.3159,-2.307,-2.3092,-2.3097,-2.3152,-2.315,-2.3183,-2.3199,-2.3199,-2.3164,-2.322,-2.3238,-2.3365,-2.3453,-2.3286,-2.3294,-2.3703,-2.3713,-2.3721,-2.3851,0,0,0,0,0,0,-2.2946,-2.2975,-2.3038,-2.3072,-2.3097,-2.3272,-2.3158,-2.3156,-2.3199,-2.3187,-2.323,-2.3232,-2.3217,-2.3352,-2.3374,-2.3462,-2.3301,-2.3696,-2.3708,-2.3718,-2.3839,-2.3863,-2.3884,0,0,0,0,0,-2.2937,-2.3071,-2.3041,-2.3064,-2.3175,-2.3277,-2.3291,-2.3271,-2.3206,-2.327,-2.328,-2.323,-2.3439,-2.3366,-2.339,-2.3482,-2.369,-2.3704,-2.3717,-2.3829,-2.3859,-2.3884,0,0,0,0,0,0,-2.3047,-2.3075,-2.3042,-2.319,-2.3232,-2.3261,-2.3341,-2.3303,-2.3364,-2.3351,-2.3324,-2.3335,-2.347,-2.3488,-2.3407,-2.3646,-2.3554,-2.3573,-2.363,-2.3659,-2.3681,-2.3675,-2.3309,0,0,0,0,0,-2.3088,-2.3168,-2.3187,-2.3316,-2.3339,-2.3337,-2.338,-2.3361,-2.3403,-2.342,-2.344,-2.3484,-2.3559,-2.3609,-2.3679,-2.384,-2.3849,-2.3915,-2.3938,-2.3956,-2.3974,-2.4063,-2.4093,-2.3769,-2.3769,-2.3769,0,0,-2.3175,-2.32,-2.3252,-2.3339,-2.3369,-2.3453,-2.3352,-2.3445,-2.3507,-2.3435,-2.3557,-2.3572,-2.3619,-2.3765,-2.383,-2.3784,-2.4065,-2.3974,-2.3988,-2.3996,-2.408,-2.4111,-2.4138,-2.3779,-2.3777,-2.3776,0,0,-2.3376,-2.3402,-2.3513,-2.3545,-2.3591,-2.3588,-2.3615,-2.365,-2.3658,-2.3779,-2.3727,-2.3801,-2.3931,-2.3967,-2.4003,-2.4217,-2.4175,-2.4241,-2.4361,-2.4447,-2.4473,-2.4495,-2.4574,-2.4603,-2.4258,-2.4258,-2.4258,0,-2.3479,-2.3602,-2.3575,-2.3672,-2.3713,-2.365,-2.3763,-2.3795,-2.3863,-2.3893,-2.384,-2.4002,-2.4029,-2.4183,-2.4236,-2.4266,-2.4297,-2.4237,-2.4471,-2.4493,-2.4514,-2.4589,-2.4619,-2.4266,-2.4265,-2.4264,-2.4264,0,-2.3727,-2.3813,-2.3898,-2.3964,-2.4014,-2.4118,-2.4109,-2.4162,-2.4138,-2.4142,-2.4268,-2.4297,-2.4373,-2.4408,-2.4385,-2.4559,-2.453,-2.4474,-2.4381,-2.4553,-2.4623,-2.4652,-2.4277,-2.4275,-2.4272,-2.427,0,0,-2.4002,-2.4051,-2.4083,-2.4113,-2.4159,-2.4226,-2.4328,-2.4401,-2.4449,-2.4497,-2.4584,-2.4695,-2.4644,-2.4684,-2.4665,-2.4741,-2.4912,-2.4676,-2.4677,-2.4721,-2.5108,-2.5152,-2.5185,-2.4883,-2.4888,-2.4892,-2.5105,0,-2.4207,-2.4384,-2.4362,-2.4532,-2.4613,-2.4553,-2.4642,-2.4681,-2.4687,-2.4757,-2.4763,-2.4844,-2.4769,-2.4793,-2.4865,-2.4876,-2.499,-2.486,-2.4965,-2.4969,-2.4958,-2.5222,-2.5268,-2.5468,-2.5132,-2.5137,-2.514,0,-2.447,-2.4527,-2.4705,-2.4739,-2.4772,-2.4853,-2.4919,-2.4986,-2.5029,-2.5028,-2.5073,-2.5041,-2.5144,-2.5047,-2.5191,-2.5103,-2.5145,-2.5156,-2.5164,-2.5175,-2.5067,-2.5243,-2.553,-2.5562,-2.5183,-2.5179,-2.5176,0,-2.4656,-2.4777,-2.49,-2.4927,-2.4969,-2.5028,-2.5048,-2.5085,-2.5131,-2.5189,-2.5219,-2.5288,-2.5327,-2.5381,-2.5369,-2.5299,-2.5517,-2.5418,-2.5521,-2.5522,-2.5572,-2.557,-2.5874,-2.5595,-2.5594,-2.5593,-2.5593,0,-2.4889,-2.5001,-2.4984,-2.506,-2.5184,-2.5158,-2.5282,-2.5295,-2.5329,-2.5407,-2.5359,-2.5434,-2.5411,-2.5485,-2.5476,-2.5598,-2.5615,-2.5619,-2.5616,-2.5625,-2.5625,-2.5654,-2.5641,-2.5601,-2.56,-2.5598,-2.5597,0,-2.5119,-2.5112,-2.5243,-2.5272,-2.5282,-2.5372,-2.5398,-2.547,-2.5471,-2.5571,-2.5593,-2.5595,-2.568,-2.5672,-2.5767,-2.5761,-2.5913,-2.5892,-2.5899,-2.5896,-2.6,-2.5992,-2.6335,-2.638,-2.6069,-2.6072,-2.6075,0,-2.527,-2.5354,-2.5393,-2.5441,-2.5466,-2.5544,-2.5591,-2.5568,-2.5619,-2.5674,-2.574,-2.582,-2.5883,-2.6021,-2.6033,-2.6105,-2.6087,-2.6203,-2.6098,-2.6106,-2.6093,-2.6089,-2.6099,-2.6225,-2.6228,-2.6231,-2.6233,0,-2.5538,-2.5531,-2.5599,-2.5667,-2.5723,-2.5775,-2.5823,-2.5865,-2.5848,-2.5907,-2.5993,-2.6042,-2.6138,-2.6219,-2.6288,-2.631,-2.6271,-2.6265,-2.6294,-2.6306,-2.6308,-2.6311,-2.5958,-2.6259,-2.6256,-2.6254,-2.6253,-2.6252,-2.5735,-2.5808,-2.5847,-2.5925,-2.5958,-2.6003,-2.6073,-2.6082,-2.6153,-2.623,-2.6212,-2.631,-2.6351,-2.6439,-2.6468,-2.6545,-2.6503,-2.6543,-2.6554,-2.6565,-2.6579,-2.6293,-2.6557,-2.6556,-2.6555,-2.6555,-2.6554,0,-2.6004,-2.6025,-2.6097,-2.6165,-2.6227,-2.6181,-2.6231,-2.6286,-2.6372,-2.6413,-2.6476,-2.6575,-2.6653,-2.667,-2.6746,-2.6804,-2.6787,-2.6825,-2.6822,-2.6828,-2.661,-2.658,-2.6837,-2.6837,-2.6837,-2.6836,-2.6836,-2.6836,-2.6151,-2.6273,-2.627,-2.6408,-2.6429,-2.6523,-2.6556,-2.6599,-2.6632,-2.6744,-2.6809,-2.6819,-2.6851,-2.6928,-2.6998,-2.7001,-2.7032,-2.7078,-2.7074,-2.6871,-2.6843,-2.6816,-2.6787,-2.7084,-2.7084,-2.7285,-2.7287,-2.7289]},{"header":{"parameterUnit":"m.s-1","parameterCategory":1,"la1":30.2991,"la2":30.254,"lo1":-89.0895,"lo2":-89.0444,"dy":0.0017,"dx":0.0017,"nx":28,"ny":28,"refTime":"2024-03-11T03:00:00:Z","depth":0,"parameterNumber":3,"parameterNumberName":"V-component_of_WINDS"},"data":[0,0,0,0,0,0,0,0,0,0,0,0,0,0,0,0,0,0,0,0,0,0,0,0,0,0,0,0,0,0,0,0,0,0,0,0,0,0,0,0,0,0,0,0,0,0,0,0,0,0,0,0,0,0,0,0,0,0,-3.3672,-3.3673,0,-3.3746,-3.3747,-3.3748,-3.3697,-3.3695,-3.3692,-3.369,-3.3765,-3.3769,-3.3773,0,0,0,0,0,0,0,0,0,0,0,0,0,-3.3485,-3.3489,-3.3672,-3.3673,-3.3674,-3.3746,-3.3747,-3.3748,-3.3697,-3.3694,-3.3692,-3.3689,-3.3763,-3.3768,-3.3773,0,0,0,0,0,0,0,0,0,0,0,0,0,-3.3563,-3.349,-3.3672,-3.3657,-3.3657,-3.3746,-3.3747,-3.3748,-3.3698,-3.3694,-3.3691,-3.3688,-3.3762,-3.3768,-3.3774,-3.3881,0,0,-3.3793,-3.3795,0,0,0,0,0,0,0,0,-3.3559,-3.357,-3.3658,-3.3658,-3.3658,-3.3709,-3.3708,-3.3793,-3.3699,-3.3682,-3.369,-3.3686,-3.3749,-3.3756,-3.3777,-3.3884,-3.3888,-3.3793,-3.3797,-3.38,-3.3801,0,0,0,0,0,0,0,-3.3554,-3.3567,-3.3701,-3.366,-3.3659,-3.3646,-3.3654,-3.3724,-3.3734,-3.3683,-3.368,-3.3689,-3.3748,-3.3771,-3.3779,-3.3889,-3.3793,-3.3799,-3.3802,-3.3805,-3.4087,-3.409,0,0,0,0,0,0,-3.355,-3.3563,-3.3699,-3.3703,-3.3599,-3.3653,-3.3661,-3.3696,-3.3733,-3.3735,-3.3692,-3.3687,-3.3762,-3.3771,-3.3781,-3.3909,-3.38,-3.3805,-3.3809,-3.4083,-3.4088,-3.4092,0,0,0,0,0,0,-3.3546,-3.3562,-3.3696,-3.3632,-3.3648,-3.3659,-3.3699,-3.3699,-3.3722,-3.374,-3.3741,-3.3715,-3.376,-3.3772,-3.3856,-3.391,-3.3808,-3.3814,-3.4079,-3.4084,-3.409,-3.4165,0,0,0,0,0,0,-3.3541,-3.3561,-3.3602,-3.3633,-3.3652,-3.3771,-3.3703,-3.3703,-3.3733,-3.3727,-3.3761,-3.3763,-3.3758,-3.3847,-3.3863,-3.3917,-3.3819,-3.4074,-3.4081,-3.4088,-3.4158,-3.4172,-3.4185,0,0,0,0,0,-3.3534,-3.362,-3.3605,-3.3621,-3.3704,-3.3774,-3.3784,-3.3777,-3.3738,-3.3779,-3.379,-3.3762,-3.3902,-3.3857,-3.3873,-3.393,-3.407,-3.4079,-3.4087,-3.4151,-3.4169,-3.4185,0,0,0,0,0,0,-3.3595,-3.3624,-3.3607,-3.3706,-3.3738,-3.3765,-3.3817,-3.3797,-3.384,-3.3832,-3.3821,-3.3829,-3.3917,-3.3932,-3.3881,-3.4036,-3.398,-3.3992,-3.4023,-3.404,-3.4054,-3.4048,-3.3824,0,0,0,0,0,-3.362,-3.3675,-3.3697,-3.3783,-3.38,-3.3806,-3.3836,-3.3828,-3.386,-3.3874,-3.3891,-3.3923,-3.3974,-3.4008,-3.4056,-3.4159,-3.4166,-3.4207,-3.422,-3.4232,-3.4242,-3.4298,-3.4317,-3.412,-3.412,-3.4119,0,0,-3.3672,-3.3695,-3.373,-3.3795,-3.3819,-3.3876,-3.3817,-3.388,-3.3922,-3.3883,-3.3963,-3.3977,-3.4012,-3.4107,-3.4149,-3.4121,-3.4298,-3.4243,-3.4251,-3.4256,-3.4309,-3.4327,-3.4344,-3.4125,-3.4124,-3.4123,0,0,-3.3796,-3.3819,-3.3893,-3.3918,-3.3954,-3.3958,-3.3976,-3.4006,-3.4014,-3.4095,-3.4066,-3.4116,-3.4204,-3.423,-3.4255,-3.4389,-3.4365,-3.4405,-3.4477,-3.4531,-3.4546,-3.456,-3.4608,-3.4625,-3.4415,-3.4416,-3.4416,0,-3.3857,-3.3942,-3.3933,-3.3998,-3.4027,-3.3994,-3.4068,-3.4093,-3.4143,-3.4164,-3.4133,-3.4243,-3.4264,-3.4364,-3.4397,-3.4418,-3.4438,-3.4401,-3.4545,-3.4559,-3.4571,-3.4617,-3.4635,-3.442,-3.442,-3.4419,-3.4419,0,-3.4014,-3.4073,-3.4128,-3.4178,-3.4213,-3.4283,-3.4284,-3.432,-3.4309,-3.4316,-3.4398,-3.4423,-3.4475,-3.4498,-3.4487,-3.4596,-3.4578,-3.4546,-3.449,-3.4595,-3.4637,-3.4655,-3.4427,-3.4425,-3.4424,-3.4423,0,0,-3.4179,-3.4223,-3.4243,-3.4265,-3.4303,-3.4349,-3.4416,-3.4468,-3.45,-3.4535,-3.4591,-3.4667,-3.4637,-3.4666,-3.4658,-3.4705,-3.481,-3.4667,-3.4668,-3.4693,-3.4931,-3.4955,-3.4976,-3.4794,-3.4797,-3.48,-3.4928,0,-3.4305,-3.4423,-3.4417,-3.4528,-3.4582,-3.4552,-3.461,-3.464,-3.4648,-3.4695,-3.4703,-3.4757,-3.4714,-3.4731,-3.4777,-3.4787,-3.4857,-3.4778,-3.4846,-3.4848,-3.4838,-3.4998,-3.5023,-3.5144,-3.4945,-3.4948,-3.495,0,-3.4468,-3.451,-3.4626,-3.4656,-3.4679,-3.4732,-3.4778,-3.4824,-3.4856,-3.4858,-3.489,-3.4874,-3.4942,-3.4884,-3.4977,-3.4923,-3.495,-3.496,-3.4964,-3.497,-3.4905,-3.5008,-3.5182,-3.52,-3.4976,-3.4974,-3.4972,0,-3.4577,-3.4662,-3.4743,-3.4763,-3.4799,-3.4837,-3.4854,-3.4883,-3.4915,-3.4955,-3.4975,-3.5023,-3.5049,-3.5086,-3.5084,-3.5042,-3.5178,-3.512,-3.5182,-3.5182,-3.5212,-3.521,-3.5392,-3.5229,-3.5229,-3.5229,-3.5228,0,-3.4719,-3.4791,-3.4792,-3.4842,-3.4922,-3.4913,-3.4993,-3.5005,-3.5032,-3.5083,-3.5059,-3.5107,-3.5101,-3.5149,-3.5147,-3.5224,-3.5236,-3.524,-3.5239,-3.5242,-3.5242,-3.526,-3.5252,-3.5233,-3.5232,-3.5231,-3.5231,0,-3.4854,-3.4858,-3.4943,-3.4971,-3.498,-3.5037,-3.5061,-3.5107,-3.5113,-3.5178,-3.5193,-3.5202,-3.5258,-3.5259,-3.5322,-3.5321,-3.5415,-3.5405,-3.5405,-3.5403,-3.5465,-3.5459,-3.5665,-3.5692,-3.5511,-3.5513,-3.5514,0,-3.4944,-3.4999,-3.5033,-3.5066,-3.5085,-3.5138,-3.517,-3.5164,-3.5198,-3.5239,-3.5281,-3.5334,-3.5377,-3.5467,-3.5479,-3.5528,-3.5518,-3.5587,-3.5525,-3.5527,-3.5519,-3.5516,-3.5522,-3.5599,-3.5601,-3.5603,-3.5604,0,-3.5104,-3.5103,-3.515,-3.5198,-3.5237,-3.5275,-3.5309,-3.5337,-3.5335,-3.5374,-3.5431,-3.5464,-3.5529,-3.5583,-3.563,-3.5647,-3.5626,-3.5624,-3.564,-3.5645,-3.5643,-3.5645,-3.5438,-3.5619,-3.5617,-3.5616,-3.5616,-3.5615,-3.522,-3.5267,-3.5298,-3.5351,-3.5377,-3.541,-3.5455,-3.5466,-3.5514,-3.5567,-3.556,-3.5624,-3.5654,-3.5715,-3.5736,-3.5785,-3.5761,-3.5786,-3.5792,-3.5798,-3.5805,-3.5635,-3.5794,-3.5793,-3.5793,-3.5792,-3.5792,0,-3.5379,-3.5397,-3.5446,-3.5495,-3.5537,-3.5513,-3.555,-3.5587,-3.5643,-3.5674,-3.5716,-3.5781,-3.5833,-3.5849,-3.5899,-3.5935,-3.5927,-3.5949,-3.5946,-3.595,-3.5823,-3.5804,-3.5955,-3.5955,-3.5955,-3.5955,-3.5955,-3.5955,-3.5466,-3.5545,-3.5548,-3.5639,-3.5656,-3.5719,-3.5742,-3.5772,-3.5796,-3.587,-3.5913,-3.5924,-3.5948,-3.6,-3.6046,-3.6049,-3.6069,-3.6095,-3.6094,-3.5976,-3.5959,-3.5944,-3.5925,-3.6099,-3.6099,-3.6217,-3.6218,-3.6219]}]]